SCP
-0 -0 -0 -0 -0 0 0 -0 -0 -0 0 0 0 0 0 0 -0 -0 -0 0 -0 0 0 -0 0 0 0 0 0 -0 0 -0 -0 -0 0 0 0 0 0 0 0 0 0
-0 -0 -0 -0 -0 -0 -0 0 -0 0 0 0 0 0 0 0 0 0 0 -0 -0 -0 0 -0 0 0 0 0 0 0 0 0 0 -0 0 0 0 0 0 0 0 0 0
-0 -0 -0 -0 -0 -0 -0 0 0 -0 0 0 0 0 -0 -0 0 0 0 0 0 -0 0 0 -0 0 0 0 0 0 0 0 0 0 0 0 0 0 0 0 0 0 0
0 0 0 -0 -0 0 0 0 0 -0 0 0 0 0 -0 -0 -0 -0 -0 0 0 -0 -0 0 0 0 0 0 0 0 0 0 0 0 0 0 0 0 0 0 0 0 0
-0 -0 -0 0 0 -0 -0 -0 -0 -0 0 0 0 0 -0 -0 -0 -0 -0 0 0 -0 0 0 0 0 0 0 0 0 0 0 0 0 0 0 0 0 0 0 0 0 0
-0 -0 -0 0 0 0 0 -0 -0 -0 0 0 0 0 0 0 0 0 0 -0 0 0 0 -0 0 0 0 0 0 0 0 0 0 0 0 0 0 0 -0 0 0 0 0
0 0 0 0 0 -0 -0 0 -0 -0 0 0 0 0 0 0 0 0 0 -0 0 0 0 0 0 0 0 0 0 0 0 0 0 0 -0 -0 -0 -0 -0 -0 -0 0 0
0 0 0 0 0 -0 -0 0 0 0 0 0 0 0 0 0 0 0 0 0 -0 0 1 0 0 0 0 0 0 0 0 0 0 -0 -0 -0 -0 0 -0 -0 -0 -0 0
0 0 0 0 0 0 -0 -0 0 0 0 0 0 1 1 0 0 0 0 0 0 0 0 0 0 0 0 0 0 0 0 0 0 0 0 0 0 0 0 0 0 0 -0
0 0 0 0 0 0 -0 0 0 0 0 1 1 1 1 0 0 0 0 0 0 1 1 1 1 0 0 0 0 0 0 0 0 0 0 0 0 0 0 0 0 0 0
0 0 0 0 0 0 0 0 -0 0 0 0 0 1 1 0 0 0 0 1 1 1 1 0 1 1 1 1 0 0 0 0 0 0 0 0 0 0 0 0 1 1 0
0 0 0 0 0 0 1 1 0 0 0 0 1 1 1 0 0 0 1 1 2 2 2 1 1 1 1 1 1 1 1 1 0 0 0 0 0 0 0 1 0 0 1
0 0 0 0 0 0 0 2 1 0 0 0 1 1 1 1 1 1 2 2 2 2 2 2 2 1 1 1 0 1 0 0 0 0 0 0 0 0 0 0 0 0 0
0 0 0 1 1 0 0 0 1 0 0 0 0 0 0 0 1 0 1 1 1 1 2 1 1 1 0 0 0 0 0 0 0 0 0 0 0 0 0 0 0 0 0
1 1 0 0 1 1 1 0 -0 1 1 1 1 1 1 0 0 0 0 1 1 1 1 1 1 1 0 0 0 0 0 0 0 0 0 0 0 0 0 0 0 0 0
1 1 1 0 0 1 1 2 1 1 0 1 1 1 1 1 1 1 1 0 0 0 0 0 0 0 0 0 0 0 0 0 0 0 0 0 0 0 0 0 0 0 0
1 1 1 0 1 0 1 1 0 0 0 0 0 0 0 0 0 0 0 0 0 0 0 0 0 0 0 0 0 0 0 0 0 0 0 0 0 0 0 0 0 -0 0
1 1 1 1 0 0 0 0 1 1 1 0 0 0 -0 -0 0 0 0 0 0 0 0 0 0 0 -0 -0 0 0 0 0 0 0 0 0 0 0 0 0 0 0 0
1 2 1 1 0 0 0 1 1 1 0 0 0 0 0 0 0 0 0 0 0 0 0 0 0 0 0 0 0 0 0 0 0 0 0 0 0 0 0 0 0 0 0
1 1 1 1 1 0 0 0 0 0 0 0 0 0 0 0 0 0 0 0 0 0 0 0 0 0 0 0 0 0 0 0 0 0 0 0 0 0 0 0 0 0 0
1 1 1 1 1 0 0 0 0 0 0 0 0 0 0 0 0 0 0 0 0 0 0 0 0 0 0 0 0 0 0 0 0 0 0 0 0 0 0 0 0 0 0
1 1 1 0 0 0 0 0 0 0 0 0 0 0 0 0 0 0 0 0 0 0 0 0 0 0 0 0 0 0 0 0 0 0 0 0 0 0 0 0 0 0 0
1 0 0 0 0 0 0 0 0 0 0 0 0 0 0 0 0 0 0 0 0 0 0 0 0 0 0 0 0 0 0 0 0 0 0 0 0 0 0 0 0 0 0
0 0 0 0 0 0 0 0 0 0 0 0 0 0 0 0 0 0 0 0 0 0 0 0 0 0 0 0 0 0 0 0 0 0 0 0 0 0 0 0 0 0 0
0 0 0 0 0 0 0 0 0 0 0 0 0 0 0 0 0 0 0 0 0 0 0 0 0 0 0 0 0 0 0 0 0 0 0 0 0 0 0 0 0 0 0
0 0 0 0 0 0 0 0 0 0 0 0 0 0 0 0 0 0 0 0 0 0 0 0 0 0 0 0 0 0 0 0 0 0 0 0 0 0 0 0 0 0 0
Wind_Speed_500mb
43 47 51 48 46 44 42 43 42 42 41 40 34 30 27 25 26 25 26 22 15 15 14 11 12 9 8 11 9 10 13 6 4 1 6 5 8 9 11 10 9 10 6
45 50 56 55 52 50 49 49 50 48 46 38 34 30 26 26 27 27 26 24 20 19 18 16 14 13 12 9 11 13 9 7 6 3 3 7 11 10 13 11 12 13 11
54 55 59 60 57 55 53 54 56 53 50 46 37 34 31 29 25 29 29 25 21 19 23 21 18 19 13 13 10 5 8 5 4 5 2 7 4 5 8 7 7 9 6
56 57 60 63 63 60 54 53 57 56 55 52 45 43 31 29 25 27 26 24 21 20 22 24 23 22 16 16 9 6 7 7 6 5 5 6 7 5 7 7 6 3 4
58 62 65 65 63 57 53 51 53 58 57 55 53 46 41 33 27 22 26 28 21 18 17 20 18 18 15 19 18 16 10 8 9 8 9 10 8 9 8 11 4 9 6
47 57 61 61 61 58 55 50 50 54 54 58 57 59 46 41 29 26 28 26 22 20 22 20 24 25 22 17 17 18 20 15 15 13 14 14 14 11 14 15 13 13 11
31 48 57 61 60 59 56 52 51 55 53 52 54 56 53 47 42 34 31 31 27 24 22 22 18 19 22 22 22 27 29 25 21 22 15 16 17 20 20 21 19 17 14
10 29 46 55 60 58 56 54 52 55 54 54 52 53 51 46 39 32 32 34 31 27 23 23 21 21 22 25 29 26 23 31 29 26 23 19 22 24 24 24 22 24 20
5 14 28 45 52 52 56 55 51 50 54 57 53 52 50 49 38 35 36 33 29 30 33 30 25 24 24 24 27 24 25 28 26 29 25 27 23 28 27 27 26 25 28
4 8 16 32 45 46 44 46 48 48 50 58 55 51 46 45 45 39 36 33 32 30 27 28 29 29 25 25 26 25 25 28 28 25 29 34 25 26 26 29 29 28 30
4 4 6 18 30 38 35 35 38 40 42 55 50 41 40 42 42 41 36 32 33 28 31 28 23 25 25 25 27 29 29 29 32 38 37 35 29 21 21 23 25 30 36
6 4 8 12 25 30 26 21 29 37 41 47 49 45 46 45 42 38 33 40 42 37 33 34 32 30 37 35 33 34 33 36 39 39 35 30 26 34 38 35 42 41 43
5 5 9 18 26 33 35 26 12 23 40 49 52 53 53 52 48 48 45 41 40 37 36 32 34 34 32 34 35 36 35 33 29 28 32 37 43 42 33 42 50 24 26
8 8 8 13 21 27 21 22 32 45 39 49 60 60 51 48 48 45 44 44 43 43 37 30 19 19 24 26 23 21 25 29 32 33 33 34 38 36 32 32 34 31 32
8 8 8 7 10 14 30 30 31 37 26 25 27 37 35 29 26 23 27 32 39 38 41 50 40 10 18 14 17 23 27 30 36 31 29 28 30 40 41 42 34 41 39
13 10 11 13 14 21 33 38 41 40 45 36 38 41 40 34 19 24 31 24 28 36 38 28 35 33 16 27 29 32 35 37 41 43 42 42 42 39 48 53 52 52 52
20 20 19 21 23 25 36 45 44 47 45 52 33 11 14 24 35 37 30 28 29 27 27 24 19 17 20 29 35 40 42 43 43 45 45 41 31 45 41 44 54 53 51
28 27 30 32 33 35 41 43 46 46 46 33 36 46 38 31 25 20 21 16 9 15 12 13 19 21 22 27 33 37 36 38 40 41 41 44 45 43 51 54 56 51 43
32 31 30 29 28 32 35 43 39 29 28 25 20 18 23 26 25 25 14 8 9 18 15 17 18 20 20 23 26 28 32 35 40 39 43 44 47 48 52 54 59 59 51
31 31 28 24 26 32 38 33 22 18 19 19 19 13 11 8 7 9 9 7 6 13 10 13 16 17 19 24 29 33 35 39 39 40 39 37 46 49 54 57 61 64 47
35 31 31 31 28 26 26 31 24 19 17 16 14 11 8 5 5 4 5 8 12 19 20 21 24 27 31 31 34 39 40 42 44 40 35 29 42 54 54 54 60 66 65
39 37 34 32 35 34 26 28 24 21 16 11 9 5 4 1 8 10 12 13 17 19 21 25 23 15 20 26 26 32 37 40 42 40 35 35 48 49 49 53 54 55 57
38 33 34 34 37 31 27 22 21 17 11 7 3 8 13 16 17 17 18 11 15 10 8 12 14 14 13 16 28 25 25 30 34 32 39 49 53 52 49 43 48 52 47
35 36 37 36 29 25 23 20 19 15 10 7 11 13 12 10 9 4 7 6 7 8 9 11 12 13 15 14 20 16 21 26 29 34 37 47 48 46 44 46 38 35 37
41 34 35 35 31 26 22 19 14 11 11 10 6 2 1 2 6 9 9 9 11 16 13 12 14 15 15 22 27 27 25 26 36 49 47 43 40 41 42 42 42 42 41
37 34 31 33 29 24 18 13 10 9 9 6 2 1 4 7 9 11 13 23 22 19 19 17 18 13 21 22 28 31 34 41 49 54 46 42 40 40 39 41 39 40 42
Wind_Direction_500mb
203 203 202 203 201 202 203 204 205 204 203 208 208 212 221 232 235 235 237 239 247 246 248 243 246 265 233 234 251 263 285 266 266 172 216 210 183 186 206 225 235 239 260
203 202 202 203 206 209 209 209 213 214 213 212 214 217 226 232 233 233 236 240 242 250 244 243 237 239 236 262 255 274 267 206 227 218 219 200 175 198 214 229 230 228 230
203 202 204 205 207 212 214 214 214 218 221 217 220 224 225 229 236 233 233 231 239 252 249 245 244 245 248 251 265 271 137 225 272 226 244 233 155 253 202 223 209 225 232
210 205 204 207 209 213 217 222 226 225 227 226 218 223 224 230 236 235 228 215 226 251 244 248 254 245 231 233 257 271 247 248 242 294 271 253 238 296 216 231 251 286 293
216 211 208 208 210 211 215 220 226 229 230 235 227 226 229 232 233 227 216 219 226 244 228 236 247 246 246 265 255 269 285 269 237 256 265 264 265 261 264 282 266 306 273
220 219 216 212 212 213 215 219 225 232 230 234 235 231 226 220 219 220 218 218 228 236 245 242 252 245 243 257 256 267 268 259 263 249 269 255 246 245 254 264 273 275 271
223 217 215 213 214 214 214 216 221 234 227 225 230 232 229 231 230 223 221 217 224 229 234 244 247 250 251 247 268 282 262 253 253 267 253 264 267 262 260 263 266 256 260
231 216 214 212 213 213 214 214 216 230 229 218 221 225 229 228 224 229 213 217 224 232 241 242 245 257 260 260 272 278 264 242 257 263 270 257 260 255 257 260 270 282 273
198 206 210 212 212 214 212 216 215 222 223 217 216 220 224 220 215 214 220 217 224 233 252 248 246 254 259 263 269 269 259 249 258 266 270 274 276 273 269 267 263 264 286
183 190 207 212 212 212 211 211 214 216 216 210 214 218 222 222 220 222 223 220 228 236 238 246 250 254 256 257 258 258 252 254 261 264 268 290 282 281 275 270 264 264 271
176 153 176 210 205 201 197 203 207 208 205 205 207 205 209 217 219 221 223 227 232 243 248 252 252 253 254 252 253 250 247 252 258 266 274 281 286 278 274 265 266 274 275
152 122 116 149 177 179 171 204 214 210 204 198 199 198 204 208 212 214 215 222 229 240 246 251 250 253 259 258 257 255 255 269 273 276 276 275 273 282 286 277 279 276 268
172 141 125 137 152 156 157 165 208 227 198 188 192 198 207 210 211 217 220 222 227 233 236 240 245 251 258 259 261 261 265 267 264 266 273 285 290 291 282 278 286 295 281
184 172 149 140 168 188 174 156 225 224 200 187 197 204 205 205 209 216 220 225 222 223 226 235 246 273 271 272 276 264 266 271 268 267 276 287 292 293 291 292 287 291 280
176 165 149 136 133 165 176 179 186 184 176 174 173 184 187 173 161 166 200 219 233 238 236 233 233 265 291 279 289 285 282 277 279 280 283 294 284 293 293 287 283 282 294
146 127 117 131 138 165 158 162 169 155 147 121 113 126 142 150 150 164 176 186 215 220 225 229 231 217 257 287 289 283 280 280 282 287 287 287 290 295 286 290 286 285 286
136 117 116 126 130 144 143 148 146 152 151 149 140 354 257 262 236 220 231 241 227 227 220 190 183 234 262 291 285 280 284 285 287 290 291 293 292 282 292 289 291 295 295
137 133 135 131 131 133 141 144 139 151 157 165 172 197 238 261 241 229 217 197 209 223 219 262 259 264 282 275 287 281 281 285 283 283 288 288 289 291 291 293 293 296 298
134 129 128 128 136 139 145 148 145 140 162 173 208 223 223 237 240 237 237 236 219 261 270 277 252 255 261 270 261 273 282 285 286 289 286 287 288 289 290 290 293 294 298
138 138 139 132 135 142 146 143 134 134 133 140 162 163 153 159 145 163 188 217 242 268 282 280 279 284 283 284 285 290 293 292 294 293 295 300 303 293 287 289 290 291 298
142 138 133 132 134 138 143 135 131 129 136 148 160 166 168 208 205 221 239 260 271 274 278 283 286 288 286 284 286 287 285 285 287 291 292 292 284 281 288 289 286 285 286
146 142 140 137 138 140 141 130 141 157 159 152 157 175 214 258 315 314 301 289 278 282 281 284 289 286 288 292 285 285 286 286 284 286 292 288 280 286 287 285 288 289 283
145 143 142 140 146 149 154 150 156 155 158 167 236 291 308 311 312 310 306 325 311 302 300 288 290 289 299 308 312 317 304 297 293 291 283 280 289 292 293 297 286 286 289
153 151 146 144 147 149 152 156 156 162 184 236 282 295 302 316 320 327 330 344 329 321 305 293 297 306 312 312 277 300 326 321 321 302 300 294 295 297 297 298 292 286 279
154 154 152 149 149 147 153 169 186 210 236 243 239 236 290 307 325 335 335 357 331 311 293 289 295 305 300 294 298 312 311 306 299 303 306 301 295 289 285 284 283 280 277
148 152 150 148 148 156 167 177 179 180 170 160 134 320 352 344 332 339 340 329 339 342 332 325 318 304 287 298 310 304 304 306 308 311 306 299 293 290 289 287 284 280 279
Wind_Speed_850mb
43 47 51 48 46 44 42 43 42 42 41 40 34 30 27 25 26 25 26 22 15 15 14 11 12 9 8 11 9 10 13 6 4 1 6 5 8 9 11 10 9 10 6
45 50 56 55 52 50 49 49 50 48 46 38 34 30 26 26 27 27 26 24 20 19 18 16 14 13 12 9 11 13 9 7 6 3 3 7 11 10 13 11 12 13 11
54 55 59 60 57 55 53 54 56 53 50 46 37 34 31 29 25 29 29 25 21 19 23 21 18 19 13 13 10 5 8 5 4 5 2 7 4 5 8 7 7 9 6
56 57 60 63 63 60 54 53 57 56 55 52 45 43 31 29 25 27 26 24 21 20 22 24 23 22 16 16 9 6 7 7 6 5 5 6 7 5 7 7 6 3 4
58 62 65 65 63 57 53 51 53 58 57 55 53 46 41 33 27 22 26 28 21 18 17 20 18 18 15 19 18 16 10 8 9 8 9 10 8 9 8 11 4 9 6
47 57 61 61 61 58 55 50 50 54 54 58 57 59 46 41 29 26 28 26 22 20 22 20 24 25 22 17 17 18 20 15 15 13 14 14 14 11 14 15 13 13 11
31 48 57 61 60 59 56 52 51 55 53 52 54 56 53 47 42 34 31 31 27 24 22 22 18 19 22 22 22 27 29 25 21 22 15 16 17 20 20 21 19 17 14
10 29 46 55 60 58 56 54 52 55 54 54 52 53 51 46 39 32 32 34 31 27 23 23 21 21 22 25 29 26 23 31 29 26 23 19 22 24 24 24 22 24 20
5 14 28 45 52 52 56 55 51 50 54 57 53 52 50 49 38 35 36 33 29 30 33 30 25 24 24 24 27 24 25 28 26 29 25 27 23 28 27 27 26 25 28
4 8 16 32 45 46 44 46 48 48 50 58 55 51 46 45 45 39 36 33 32 30 27 28 29 29 25 25 26 25 25 28 28 25 29 34 25 26 26 29 29 28 30
4 4 6 18 30 38 35 35 38 40 42 55 50 41 40 42 42 41 36 32 33 28 31 28 23 25 25 25 27 29 29 29 32 38 37 35 29 21 21 23 25 30 36
6 4 8 12 25 30 26 21 29 37 41 47 49 45 46 45 42 38 33 40 42 37 33 34 32 30 37 35 33 34 33 36 39 39 35 30 26 34 38 35 42 41 43
5 5 9 18 26 33 35 26 12 23 40 49 52 53 53 52 48 48 45 41 40 37 36 32 34 34 32 34 35 36 35 33 29 28 32 37 43 42 33 42 50 24 26
8 8 8 13 21 27 21 22 32 45 39 49 60 60 51 48 48 45 44 44 43 43 37 30 19 19 24 26 23 21 25 29 32 33 33 34 38 36 32 32 34 31 32
8 8 8 7 10 14 30 30 31 37 26 25 27 37 35 29 26 23 27 32 39 38 41 50 40 10 18 14 17 23 27 30 36 31 29 28 30 40 41 42 34 41 39
13 10 11 13 14 21 33 38 41 40 45 36 38 41 40 34 19 24 31 24 28 36 38 28 35 33 16 27 29 32 35 37 41 43 42 42 42 39 48 53 52 52 52
20 20 19 21 23 25 36 45 44 47 45 52 33 11 14 24 35 37 30 28 29 27 27 24 19 17 20 29 35 40 42 43 43 45 45 41 31 45 41 44 54 53 51
28 27 30 32 33 35 41 43 46 46 46 33 36 46 38 31 25 20 21 16 9 15 12 13 19 21 22 27 33 37 36 38 40 41 41 44 45 43 51 54 56 51 43
32 31 30 29 28 32 35 43 39 29 28 25 20 18 23 26 25 25 14 8 9 18 15 17 18 20 20 23 26 28 32 35 40 39 43 44 47 48 52 54 59 59 51
31 31 28 24 26 32 38 33 22 18 19 19 19 13 11 8 7 9 9 7 6 13 10 13 16 17 19 24 29 33 35 39 39 40 39 37 46 49 54 57 61 64 47
35 31 31 31 28 26 26 31 24 19 17 16 14 11 8 5 5 4 5 8 12 19 20 21 24 27 31 31 34 39 40 42 44 40 35 29 42 54 54 54 60 66 65
39 37 34 32 35 34 26 28 24 21 16 11 9 5 4 1 8 10 12 13 17 19 21 25 23 15 20 26 26 32 37 40 42 40 35 35 48 49 49 53 54 55 57
38 33 34 34 37 31 27 22 21 17 11 7 3 8 13 16 17 17 18 11 15 10 8 12 14 14 13 16 28 25 25 30 34 32 39 49 53 52 49 43 48 52 47
35 36 37 36 29 25 23 20 19 15 10 7 11 13 12 10 9 4 7 6 7 8 9 11 12 13 15 14 20 16 21 26 29 34 37 47 48 46 44 46 38 35 37
41 34 35 35 31 26 22 19 14 11 11 10 6 2 1 2 6 9 9 9 11 16 13 12 14 15 15 22 27 27 25 26 36 49 47 43 40 41 42 42 42 42 41
37 34 31 33 29 24 18 13 10 9 9 6 2 1 4 7 9 11 13 23 22 19 19 17 18 13 21 22 28 31 34 41 49 54 46 42 40 40 39 41 39 40 42
Wind_Direction_850mb
203 203 202 203 201 202 203 204 205 204 203 208 208 212 221 232 235 235 237 239 247 246 248 243 246 265 233 234 251 263 285 266 266 172 216 210 183 186 206 225 235 239 260
203 202 202 203 206 209 209 209 213 214 213 212 214 217 226 232 233 233 236 240 242 250 244 243 237 239 236 262 255 274 267 206 227 218 219 200 175 198 214 229 230 228 230
203 202 204 205 207 212 214 214 214 218 221 217 220 224 225 229 236 233 233 231 239 252 249 245 244 245 248 251 265 271 137 225 272 226 244 233 155 253 202 223 209 225 232
210 205 204 207 209 213 217 222 226 225 227 226 218 223 224 230 236 235 228 215 226 251 244 248 254 245 231 233 257 271 247 248 242 294 271 253 238 296 216 231 251 286 293
216 211 208 208 210 211 215 220 226 229 230 235 227 226 229 232 233 227 216 219 226 244 228 236 247 246 246 265 255 269 285 269 237 256 265 264 265 261 264 282 266 306 273
220 219 216 212 212 213 215 219 225 232 230 234 235 231 226 220 219 220 218 218 228 236 245 242 252 245 243 257 256 267 268 259 263 249 269 255 246 245 254 264 273 275 271
223 217 215 213 214 214 214 216 221 234 227 225 230 232 229 231 230 223 221 217 224 229 234 244 247 250 251 247 268 282 262 253 253 267 253 264 267 262 260 263 266 256 260
231 216 214 212 213 213 214 214 216 230 229 218 221 225 229 228 224 229 213 217 224 232 241 242 245 257 260 260 272 278 264 242 257 263 270 257 260 255 257 260 270 282 273
198 206 210 212 212 214 212 216 215 222 223 217 216 220 224 220 215 214 220 217 224 233 252 248 246 254 259 263 269 269 259 249 258 266 270 274 276 273 269 267 263 264 286
183 190 207 212 212 212 211 211 214 216 216 210 214 218 222 222 220 222 223 220 228 236 238 246 250 254 256 257 258 258 252 254 261 264 268 290 282 281 275 270 264 264 271
176 153 176 210 205 201 197 203 207 208 205 205 207 205 209 217 219 221 223 227 232 243 248 252 252 253 254 252 253 250 247 252 258 266 274 281 286 278 274 265 266 274 275
152 122 116 149 177 179 171 204 214 210 204 198 199 198 204 208 212 214 215 222 229 240 246 251 250 253 259 258 257 255 255 269 273 276 276 275 273 282 286 277 279 276 268
172 141 125 137 152 156 157 165 208 227 198 188 192 198 207 210 211 217 220 222 227 233 236 240 245 251 258 259 261 261 265 267 264 266 273 285 290 291 282 278 286 295 281
184 172 149 140 168 188 174 156 225 224 200 187 197 204 205 205 209 216 220 225 222 223 226 235 246 273 271 272 276 264 266 271 268 267 276 287 292 293 291 292 287 291 280
176 165 149 136 133 165 176 179 186 184 176 174 173 184 187 173 161 166 200 219 233 238 236 233 233 265 291 279 289 285 282 277 279 280 283 294 284 293 293 287 283 282 294
146 127 117 131 138 165 158 162 169 155 147 121 113 126 142 150 150 164 176 186 215 220 225 229 231 217 257 287 289 283 280 280 282 287 287 287 290 295 286 290 286 285 286
136 117 116 126 130 144 143 148 146 152 151 149 140 354 257 262 236 220 231 241 227 227 220 190 183 234 262 291 285 280 284 285 287 290 291 293 292 282 292 289 291 295 295
137 133 135 131 131 133 141 144 139 151 157 165 172 197 238 261 241 229 217 197 209 223 219 262 259 264 282 275 287 281 281 285 283 283 288 288 289 291 291 293 293 296 298
134 129 128 128 136 139 145 148 145 140 162 173 208 223 223 237 240 237 237 236 219 261 270 277 252 255 261 270 261 273 282 285 286 289 286 287 288 289 290 290 293 294 298
138 138 139 132 135 142 146 143 134 134 133 140 162 163 153 159 145 163 188 217 242 268 282 280 279 284 283 284 285 290 293 292 294 293 295 300 303 293 287 289 290 291 298
142 138 133 132 134 138 143 135 131 129 136 148 160 166 168 208 205 221 239 260 271 274 278 283 286 288 286 284 286 287 285 285 287 291 292 292 284 281 288 289 286 285 286
146 142 140 137 138 140 141 130 141 157 159 152 157 175 214 258 315 314 301 289 278 282 281 284 289 286 288 292 285 285 286 286 284 286 292 288 280 286 287 285 288 289 283
145 143 142 140 146 149 154 150 156 155 158 167 236 291 308 311 312 310 306 325 311 302 300 288 290 289 299 308 312 317 304 297 293 291 283 280 289 292 293 297 286 286 289
153 151 146 144 147 149 152 156 156 162 184 236 282 295 302 316 320 327 330 344 329 321 305 293 297 306 312 312 277 300 326 321 321 302 300 294 295 297 297 298 292 286 279
154 154 152 149 149 147 153 169 186 210 236 243 239 236 290 307 325 335 335 357 331 311 293 289 295 305 300 294 298 312 311 306 299 303 306 301 295 289 285 284 283 280 277
148 152 150 148 148 156 167 177 179 180 170 160 134 320 352 344 332 339 340 329 339 342 332 325 318 304 287 298 310 304 304 306 308 311 306 299 293 290 289 287 284 280 279